www.pogodaiklimat.ru

Погода и климат >> Архив погоды >> Саудовская Аравия >> Al-Jouf


ПОГОДА в Al-Jouf

  • Прогноз погоды в Al-Jouf
  • Монитор погоды в Al-Jouf
  • Климат города

АРХИВ ПОГОДЫ в Al-Jouf

Время (UTC), дата Ветер
(напр.,м/с)
 
Видим.   Явления Облачность Т
(С)
Тd
(С)
f
(%)
Тe
(С)
Тes
(С)
Комфортность P
(гПа)
Po
(гПа)
Тmin
(С)
Tmax
(С)
R
(мм)
R24
(мм)
S
(см)
12 17.04 З 3 10 км ясно +28.6 -4.0 12 +26 +37 жарко 1014.7 940.2
15 17.04 В 2 10 км ясно +28.0 -5.0 11 +25 +26 комфорт 1014.6 939.8
18 17.04 В 2 10 км ясно +24.8 -6.0 12 +22 +22 комфорт 1015.4 941.2 +28.8
21 17.04 ЮВ 5 10 км ясно +20.2 -7.0 15 +20 +20 1015.7 941.3
00 18.04 Ю 5 10 км ясно +18.0 -6.0 19 +18 +18 1015.5 941.0
03 18.04 Ю 4 10 км ясно +15.9 -5.0 23 +15 +15 1017.7 942.5
06 18.04 Ю 8 10 км ясно +25.2 -6.0 12 +23 +24 комфорт 1018.5 943.9 +15.9
09 18.04 ЮВ 6 10 км ясно +30.4 -7.0 8 +26 +35 жарко 1017.9 943.5
12 18.04 штиль 0 10 км ясно +31.3 -8.0 7 +27 +44 жарко 1016.2 941.8
15 18.04 ЮВ 1 10 км ясно +30.7 -8.0 8 +27 +28 жарко 1015.2 940.9
18 18.04 В 2 10 км ясно +26.1 -8.0 10 +23 +23 комфорт 1015.3 941.6 +31.7
21 18.04 ЮВ 4 10 км ясно +20.2 -8.0 14 +20 +20 1015.0 941.0
00 19.04 Ю 4 10 км ясно +18.4 -11.0 13 +18 +18 1013.7 939.7
03 19.04 Ю 5 10 км ясно +17.6 -9.0 15 +17 +17 1014.4 940.0
06 19.04 Ю 6 10 км ясно +27.0 -4.0 13 +24 +28 комфорт 1014.5 940.6 +17.6
09 19.04 ЮЗ 3 10 км ясно +32.8 -7.0 7 +29 +45 жарко 1012.8 939.2
12 19.04 ЮЗ 4 10 км ясно +34.7 -9.0 6 +30 +40 жарко 1010.5 937.0
15 19.04 СЗ 2 10 км ясно +33.3 -9.0 6 +29 +30 жарко 1009.0 935.6
18 19.04 ЮВ 4 10 км ясно +26.4 -7.0 11 +24 +24 комфорт 1008.2 935.3 +34.7
21 19.04 ЮВ 5 10 км ясно +22.8 -9.0 11 +21 +21 комфорт 1007.0 934.3
00 20.04 ЮЗ 3 10 км ясно +20.5 -8.0 14 +20 +20 1006.5 933.6
03 20.04 З 8 10 км ясно +21.1 +1.0 26 +21 +21 комфорт 1007.3 934.1
06 20.04 З 3 10 км ясно +23.5 0.0 21 +22 +30 комфорт 1009.6 935.7 +20.2
09 20.04 З 6 10 км ясно +29.4 -5.0 10 +26 +34 жарко 1008.4 934.9
12 20.04 З 9 10 км ясно +32.9 -1.0 11 +29 +30 жарко 1005.9 932.9
15 20.04 З 8 10 км 3/0
[As trans]
+31.4 -3.0 11 +28 +28 жарко 1005.2 932.0
18 20.04 СЗ 3 10 км ясно +27.3 -4.0 13 +25 +25 комфорт 1005.9 932.9 +33.2
21 20.04 З 6 4500 м пыль ясно +25.3 -3.0 15 +23 +23 комфорт 1007.4 934.6
00 21.04 Ю 3 7000 м пыль ясно +21.7 0.0 24 +21 +21 комфорт 1005.9 933.0
03 21.04 ЮЗ 3 6000 м пыль 3/0
[As trans]
+20.1 0.0 26 +21 +21 комфорт 1006.9 933.5
06 21.04 ЮЗ 5 6000 м пыль 4/0
[As trans]
+26.7 -2.0 15 +24 +28 комфорт 1007.4 934.4 +20.0
09 21.04 З 4 8000 м пыль 5/0
[As trans]
+32.7 -1.0 11 +29 +38 жарко 1005.5 933.0
12 21.04 З 4 9000 м пыль 4/0
[As op]
+34.7 0.0 11 +31 +37 жарко 1003.3 930.8
15 21.04 СЗ 5 200 м пыльная буря ?/? +29.7 +3.0 18 +28 +28 жарко 1004.9 931.5
18 21.04 СЗ 5 2500 м пыль 5/3 1200 м
[Sc As op]
+26.7 +2.0 20 +25 +25 комфорт 1005.4 932.6 +34.7
21 21.04 ЮВ 4 3200 м пыль 1/1 1200 м
[Sc]
+24.6 +2.0 23 +24 +24 комфорт 1004.5 932.1
00 22.04 ЮВ 4 1200 м пыль 3/3 1200 м
[Sc]
+23.2 +3.0 27 +23 +23 комфорт 1004.0 931.5
03 22.04 ЮВ 5 500 м пыль ?/? +22.6 +4.0 30 +23 +23 комфорт 1003.7 930.4
06 22.04 Ю 8 1300 м пыльный позёмок ?/? +26.0 +4.0 24 +25 +25 комфорт 1003.7 930.7 +22.6
09 22.04 С 7 1800 м пыльный позёмок ?/? +27.1 +4.0 23 +26 +26 жарко 1002.9 929.8
12 22.04 С 7 4000 м пыльный позёмок 5/0
[As op]
+27.7 +3.0 20 +26 +28 жарко 1002.3 929.2
15 22.04 СЗ 6 7000 м пыль ясно +24.9 +3.0 24 +24 +24 комфорт 1003.8 930.3
18 22.04 ЮЗ 7 10 км 3/0
[As op]
+23.2 -3.0 17 +22 +22 комфорт 1005.8 932.4 +27.7
21 22.04 СЗ 6 10 км 3/0
[As op]
+20.8 -2.0 21 +20 +20 1008.4 934.5
00 23.04 СЗ 4 10 км 1/0
[As op]
+17.2 0.0 31 +17 +17 1009.1 934.7
03 23.04 С 4 10 км ясно +16.3 +1.0 35 +16 +16 1011.0 936.1
06 23.04 С 3 10 км ясно +19.8 +2.0 31 +20 +28 1013.0 938.1 +16.2
09 23.04 С 3 10 км ясно +24.0 +1.0 22 +23 +40 комфорт 1012.9 938.2
12 23.04 З 3 10 км ясно +25.7 -1.0 17 +24 +35 комфорт 1011.7 936.9
15 23.04 СВ 1 10 км ясно +26.2 -4.0 13 +24 +25 комфорт 1011.5 936.8
18 23.04 В 2 10 км ясно +23.1 -3.0 17 +21 +21 комфорт 1012.7 938.1 +26.6
21 23.04 ЮВ 4 10 км ясно +19.7 -3.0 21 +20 +20 1012.4 937.9
00 24.04 В 2 10 км ясно +18.3 -3.0 23 +19 +19 1011.9 937.4
03 24.04 ЮЗ 2 10 км ясно +14.8 -3.0 29 +15 +15 1013.9 938.6
06 24.04 ЮВ 3 10 км 1/0
[As trans]
+22.8 -3.0 18 +21 +30 комфорт 1015.1 940.3 +14.8
09 24.04 ЮВ 6 10 км 3/0
[Ci fib]
+28.3 -4.0 12 +25 +32 комфорт 1013.3 939.1

 

Местоположение метеостанции Al-Jouf (Саудовская Аравия): широта 29.78 долгота 40.10 высота над уровнем моря 689 м.

В архиве по умолчанию представлена погода в Al-Jouf за последнюю неделю. Архивные данные за месяц целиком и за предыдущие месяцы, начиная с января 2011 года, Вы можете получить, выбрав интересующий диапазон дат из раскрывающегося списка и нажав кнопку "Ввод!".


*Определитесь, кто Вы:
робот инопланетянин человек

Внимание! Время в таблицах - всемирное. Для получения местного времени необходимо прибавить поправку, которая в Al-Jouf равна 3 ч.

Смотрите также архив погоды в соседних городах и на ближайших метеорологических станциях:

Погода в Arar (Саудовская Аравия) (159 км)
Погода в Turaif (Саудовская Аравия) (249 км)
Погода в Hail (Саудовская Аравия) (304 км)
Погода в Al-Nukhib (Ирак) (324 км)
Погода в Gurayat (Саудовская Аравия) (325 км)
Погода в Rafha (Саудовская Аравия) (327 км)
Погода в Ruwaished (Иордания) (352 км)
Погода в Rutbah (Ирак) (362 км)
Погода в Tabuk (Саудовская Аравия) (374 км)
Погода в Safawi (Иордания) (391 км)

Пояснения к столбцам:

Ветер - указаны скорость ветра в м/с - средняя за 10 мин, порывы в срок и между сроками (в фигурных скобках) и направление, откуда дует ветер: С - северный, СВ - северо-восточный, В - восточный, ЮВ - юго-восточный, Ю - южный, ЮЗ - юго-западный, З - западный, СЗ - северо-западный.
Видимость - горизонтальная дальность видимости в метрах или километрах. При видимости от 1 до 10 км при отсутствии осадков обычно наблюдается дымка, при ухудшении видимости до 1 км и менее - туман. В сухую погоду видимость может ухудшаться дымом, пылью или мглою.
Явления - указаны атмосферные явления, наблюдавшиеся в срок или в последний час перед сроком; фигурными скобками обозначены явления, наблюдавшиеся между сроками (за 1-3 часа до срока); квадратными скобками обозначены град или гололедные отложения с указанием их диаметра в мм.
Облачность - указаны через наклонную черту общая и нижняя облачность в баллах и высота нижней границы облаков в метрах; квадратными скобками обозначены формы облаков: Ci - перистые, Cs - перисто-слоистые, Cc - перисто-кучевые, Ac - высококучевые, As - высокослоистые, Sc - слоисто-кучевые, Ns - слоисто-дождевые, Cu - кучевые, Cb - кучево-дождевые. Подробнее классификацию облаков см. в Атласе облаков (PDF).
T - Температура воздуха - температура, измеренная на высоте 2 м над землей.
Td - Температура точки росы - температура, при понижении до которой содержащийся в воздухе водяной пар достигнет насыщения.
f - Относительная влажность воздуха - влажноcть воздуха, измеренная на высоте 2 м над землей.
Te - Эффективная температура - температура, которую ощущает одетый по сезону человек в тени. Характеристика душности погоды. При расчете учитывается влияние влажности воздуха и скорости ветра на теплоощущения человека.
Tes - Эффективная температура на солнце - температура, которую ощущает человек, с поправкой на солнечный нагрев. Характеристика знойности погоды. Зависит от высоты солнца над горизонтом, облачности и скорости ветра. Ночью, в пасмурную погоду, а также при ветре 12 м/с и более поправка равна нулю.
P - Атмосферное давление - приведенное к уровню моря атмосферное давление.
Po - Атмосферное давление - измеренное на уровне метеостанции атмосферное давление.
Tmin - Минимальная температура - минимум температуры воздуха на высоте 2 м над землей.
Tmax - Максимальная температура - максимум температуры воздуха на высоте 2 м над землей.
R - Количество осадков - Количество выпавших осадков за период времени, мм. При наведении курсора мыши на число - период времени, за который выпало указанное количество осадков.
R24 - Количество осадков - Количество выпавших осадков за 24 часа, мм.
S - Снежный покров - Высота снежного покрова, см. При наведении курсора мыши на число - состояние снежного покрова и степень покрытия местности в баллах.